Weather History for Stevensville, MD

Change the Weather History Date:

Wednesday, October 9, 2013

  Actual Average (KESN) Record (KESN)
Temperature  
Mean Temperature 58 °F -  
Max Temperature 60 °F 73 °F 89 °F (2007)
Min Temperature 55 °F 53 °F 35 °F (1974)
Degree Days  
Heating Degree Days 8    
Growing Degree Days 8 (Base 50)    
Moisture  
Dew Point 49 °F    
Average Humidity 71    
Maximum Humidity 94    
Minimum Humidity 55    
Precipitation  
Precipitation 0.00 in - - ()
Sea Level Pressure  
Sea Level Pressure 30.26 in    
Wind  
Wind Speed 8 mph (NNE)    
Max Wind Speed 13 mph    
Max Gust Speed 21 mph    
Visibility 10 miles    
Events Rain    
Averages and records for this station are not official NWS values.
T = Trace of Precipitation, MM = Missing Value Source: NWS Daily Summary

Daily Weather History Graph

Daily Weather History Graph

Search for Another Location

Airport:

Trip Planner

Search our weather history database for the weather conditions in past years. The results will help you decide how hot, cold, wet, or windy it might be!

Date:

Astronomy

Oct. 09, 2013 Rise Set
Actual Time 7:09 AM EDT 6:35 PM EDT
Civil Twilight 6:42 AM EDT 7:01 PM EDT
Nautical Twilight 6:11 AM EDT 7:32 PM EDT
Astronomical Twilight 5:40 AM EDT 8:03 PM EDT
Moon 12:00 PM EDT (10/9) 10:09 PM EDT (10/9)
Length of Visible Light 12h 19m
Length of Day
11h 26m
Waxing Crescent, 25% of the Moon is Illuminated
Oct 9
Waxing Crescent
Oct 11
First Quarter
Oct 18
Full
Oct 26
Last Quarter
Nov 3
New

Hourly Weather History & Observations

Time (EDT) Temp. Dew Point Humidity Pressure Visibility Wind Dir Wind Speed Gust Speed Precip Events Conditions
12:08 AM 60.8 °F 46.4 °F 59% 30.28 in 10.0 mi NE 6.9 mph - N/A   Clear
12:28 AM 60.8 °F 46.4 °F 59% 30.28 in 10.0 mi NE 6.9 mph - N/A   Clear
12:48 AM 60.8 °F 46.4 °F 59% 30.28 in 10.0 mi ENE 3.5 mph - N/A   Clear
1:08 AM 60.8 °F 44.6 °F 55% 30.28 in 10.0 mi ENE 5.8 mph - N/A   Clear
1:28 AM 60.8 °F 46.4 °F 59% 30.28 in 10.0 mi NE 6.9 mph - N/A   Clear
1:48 AM 60.8 °F 46.4 °F 59% 30.27 in 10.0 mi NE 6.9 mph - N/A   Clear
2:08 AM 60.8 °F 44.6 °F 55% 30.27 in 10.0 mi NE 10.4 mph - N/A   Clear
2:28 AM 60.8 °F 44.6 °F 55% 30.27 in 10.0 mi NE 5.8 mph - N/A   Clear
2:48 AM 59.0 °F 44.6 °F 59% 30.27 in 10.0 mi NE 10.4 mph 16.1 mph N/A   Clear
3:08 AM 59.0 °F 44.6 °F 59% 30.26 in 10.0 mi NE 8.1 mph 17.3 mph N/A   Clear
3:28 AM 59.0 °F 44.6 °F 59% 30.25 in 10.0 mi NE 8.1 mph - N/A   Clear
3:48 AM 59.0 °F 44.6 °F 59% 30.26 in 10.0 mi NNE 6.9 mph - N/A   Clear
4:08 AM 57.2 °F 46.4 °F 67% 30.25 in 10.0 mi NNE 8.1 mph - N/A   Clear
4:28 AM 59.0 °F 46.4 °F 63% 30.25 in 10.0 mi NNE 9.2 mph - N/A   Clear
4:48 AM 57.2 °F 46.4 °F 67% 30.26 in 10.0 mi NNE 5.8 mph - N/A   Clear
5:08 AM 57.2 °F 46.4 °F 67% 30.28 in 10.0 mi ENE 6.9 mph - N/A   Clear
5:28 AM 57.2 °F 46.4 °F 67% 30.28 in 10.0 mi NE 6.9 mph - N/A   Clear
5:48 AM 57.2 °F 46.4 °F 67% 30.26 in 10.0 mi NE 6.9 mph - N/A   Clear
6:08 AM 57.2 °F 46.4 °F 67% 30.26 in 10.0 mi NE 9.2 mph - N/A   Clear
6:28 AM 55.4 °F 46.4 °F 72% 30.26 in 10.0 mi NNE 9.2 mph - N/A   Clear
6:48 AM 55.4 °F 46.4 °F 72% 30.26 in 10.0 mi NNE 8.1 mph - N/A   Clear
7:08 AM 55.4 °F 46.4 °F 72% 30.28 in 10.0 mi NNE 5.8 mph - N/A   Clear
7:28 AM 55.4 °F 48.2 °F 77% 30.28 in 10.0 mi NNE 6.9 mph - N/A   Clear
7:48 AM 55.4 °F 48.2 °F 77% 30.28 in 10.0 mi North 5.8 mph - N/A   Clear
8:08 AM 55.4 °F 48.2 °F 77% 30.29 in 10.0 mi NNE 8.1 mph - N/A   Clear
8:28 AM 55.4 °F 48.2 °F 77% 30.31 in 10.0 mi NNE 5.8 mph - N/A   Clear
8:49 AM 57.2 °F 48.2 °F 72% 30.30 in 10.0 mi NNE 8.1 mph 18.4 mph N/A   Clear
9:09 AM 57.2 °F 48.2 °F 72% 30.31 in 10.0 mi NNE 8.1 mph - N/A   Clear
9:29 AM 57.2 °F 48.2 °F 72% 30.31 in 10.0 mi NNE 8.1 mph 16.1 mph N/A   Clear
9:49 AM 57.2 °F 46.4 °F 67% 30.30 in 10.0 mi NE 5.8 mph 17.3 mph N/A   Clear
10:09 AM 59.0 °F 46.4 °F 63% 30.31 in 10.0 mi NE 11.5 mph 18.4 mph N/A   Clear
10:29 AM 59.0 °F 46.4 °F 63% 30.30 in 10.0 mi NE 11.5 mph 16.1 mph N/A   Clear
10:49 AM 59.0 °F 46.4 °F 63% 30.31 in 10.0 mi NNE 11.5 mph 17.3 mph N/A   Clear
11:09 AM 59.0 °F 46.4 °F 63% 30.31 in 10.0 mi NE 8.1 mph 16.1 mph N/A   Clear
11:29 AM 59.0 °F 48.2 °F 67% 30.31 in 10.0 mi NE 8.1 mph 17.3 mph N/A   Clear
11:49 AM 60.8 °F 48.2 °F 63% 30.30 in 10.0 mi NE 9.2 mph - N/A   Clear
12:09 PM 60.8 °F 48.2 °F 63% 30.29 in 10.0 mi NNE 9.2 mph 20.7 mph N/A   Clear
12:29 PM 60.8 °F 48.2 °F 63% 30.28 in 10.0 mi NNE 8.1 mph - N/A   Clear
12:49 PM 60.8 °F 50.0 °F 68% 30.28 in 10.0 mi NNE 6.9 mph - N/A   Clear
1:09 PM 60.8 °F 50.0 °F 68% 30.29 in 10.0 mi NE 11.5 mph 18.4 mph N/A   Clear
1:29 PM 60.8 °F 50.0 °F 68% 30.29 in 10.0 mi NNE 8.1 mph 16.1 mph N/A   Scattered Clouds
1:49 PM 60.8 °F 50.0 °F 68% 30.29 in 10.0 mi ENE 12.7 mph 18.4 mph N/A   Mostly Cloudy
2:09 PM 60.8 °F 50.0 °F 68% 30.28 in 10.0 mi NE 6.9 mph 20.7 mph N/A   Mostly Cloudy
2:29 PM 60.8 °F 50.0 °F 68% 30.28 in 10.0 mi NNE 6.9 mph - N/A   Scattered Clouds
2:49 PM 60.8 °F 50.0 °F 68% 30.27 in 10.0 mi NE 9.2 mph - N/A   Scattered Clouds
3:09 PM 60.8 °F 50.0 °F 68% 30.27 in 10.0 mi NNE 9.2 mph 17.3 mph N/A   Scattered Clouds
3:29 PM 60.8 °F 50.0 °F 68% 30.26 in 10.0 mi North 8.1 mph - N/A Rain Light Rain
3:49 PM 60.8 °F 50.0 °F 68% 30.26 in 10.0 mi NNE 6.9 mph - N/A   Scattered Clouds
4:09 PM 60.8 °F 50.0 °F 68% 30.25 in 10.0 mi NNE 6.9 mph - N/A   Light Drizzle
4:29 PM 60.8 °F 50.0 °F 68% 30.24 in 10.0 mi NNE 9.2 mph 17.3 mph N/A   Scattered Clouds
4:49 PM 60.8 °F 50.0 °F 68% 30.24 in 10.0 mi NNE 8.1 mph - N/A Rain Light Rain
5:09 PM 60.8 °F 50.0 °F 68% 30.25 in 10.0 mi NE 11.5 mph 17.3 mph N/A   Light Drizzle
5:30 PM 59.0 °F 50.0 °F 72% 30.25 in 10.0 mi NNE 9.2 mph - N/A   Light Drizzle
5:50 PM 59.0 °F 50.0 °F 72% 30.25 in 10.0 mi NNE 8.1 mph - N/A   Light Drizzle
6:10 PM 59.0 °F 51.8 °F 77% 30.25 in 10.0 mi NNE 8.1 mph 16.1 mph N/A Rain Rain
6:30 PM 59.0 °F 51.8 °F 77% 30.25 in 10.0 mi NE 9.2 mph 16.1 mph N/A Rain Light Rain
6:50 PM 59.0 °F 51.8 °F 77% 30.25 in 10.0 mi NE 8.1 mph - N/A   Drizzle
7:10 PM 57.2 °F 51.8 °F 82% 30.25 in 10.0 mi North 5.8 mph - N/A Rain Rain
7:30 PM 57.2 °F 51.8 °F 82% 30.24 in 10.0 mi NNE 10.4 mph 17.3 mph N/A Rain Rain
7:50 PM 55.4 °F 51.8 °F 88% 30.24 in 10.0 mi NE 10.4 mph - N/A Rain Light Rain
8:10 PM 55.4 °F 51.8 °F 88% 30.23 in 10.0 mi NNE 8.1 mph - N/A   Light Drizzle
8:30 PM 55.4 °F 51.8 °F 88% 30.23 in 10.0 mi NNE 6.9 mph 16.1 mph N/A   Clear
8:50 PM 55.4 °F 51.8 °F 88% 30.23 in 10.0 mi NE 8.1 mph 20.7 mph N/A   Drizzle
9:10 PM 55.4 °F 51.8 °F 88% 30.23 in 10.0 mi NNE 9.2 mph - N/A   Mostly Cloudy
9:30 PM 55.4 °F 51.8 °F 88% 30.23 in 10.0 mi NNE 8.1 mph 16.1 mph N/A Rain Light Rain
9:50 PM 55.4 °F 51.8 °F 88% 30.22 in 10.0 mi NNE 10.4 mph - N/A   Mostly Cloudy
10:10 PM 57.2 °F 51.8 °F 82% 30.22 in 10.0 mi NNE 6.9 mph - N/A   Mostly Cloudy
10:30 PM 55.4 °F 51.8 °F 88% 30.21 in 10.0 mi NNE 8.1 mph 17.3 mph N/A   Light Drizzle
10:50 PM 55.4 °F 51.8 °F 88% 30.20 in 10.0 mi NNE 9.2 mph 17.3 mph N/A   Mostly Cloudy
11:10 PM 55.4 °F 51.8 °F 88% 30.20 in 10.0 mi NNE 9.2 mph 18.4 mph N/A Rain Light Rain
11:30 PM 55.4 °F 51.8 °F 88% 30.20 in 10.0 mi NNE 6.9 mph - N/A   Drizzle
11:50 PM 55.4 °F 53.6 °F 94% 30.20 in 10.0 mi NNE 11.5 mph 17.3 mph N/A Rain Rain